Location: *
(51.0333°S, 178.4667°E)
Time: 21:06:54
(UTC+00:00)

Starlink (trailer) - Pass Details

Date: 15 November 2019
Orbit: 529 x 530 km, 53.0° (Epoch: 08 December)

Event Time Altitude Azimuth Distance (km) Brightness Sun altitude
Rises 10:21:12 0° 257° (WSW) 2,688 7.7 -17.8°
Reaches altitude 10° 10:23:26 10° 254° (WSW) 1,797 6.7 -17.9°
Maximum altitude 10:27:31 74° 168° (SSE) 563 3.7 -18.1°
Enters shadow 10:30:21 19° 85° (E) 1,314 5.3 -18.3°
